Simultaneous Nadir Overpasses (SNOs) Predictions

Prediction of SNOs between FY3D and TERRA Satellite Orbit:

Table of predicted SNOs for the next 14.0 days since TLE Epoch: 7/30/2022
Index Date (FY3D) Time (FY3D) Lat,Lon (FY3D) SZA (FY3D ) Date (TERRA) Time (TERRA) Lat,Lon (TERRA) SZA (TERRA ) Distance(km) Time Diff (sec)
1 07/31/2022 10:19:10 71.83, 24.95 53.53 07/31/2022 10:20:04 71.84, 24.98 53.54 1.25 54
2 07/31/2022 11:09:52 -71.74,-167.55 126.56 07/31/2022 11:09:34 -71.72,-167.59 126.58 2.47 18
3 08/03/2022 01:46:12 -71.84, -26.80 125.79 08/03/2022 01:47:05 -71.86, -26.77 125.78 2.12 53
4 08/03/2022 02:36:58 71.78, 140.63 54.16 08/03/2022 02:36:32 71.76, 140.71 54.14 3.42 26
5 08/05/2022 17:13:17 71.84, -78.54 54.92 08/05/2022 17:14:04 71.84, -78.56 54.92 0.59 47
6 08/05/2022 18:04:00 -71.78, 88.88 125.14 08/05/2022 18:03:33 -71.78, 88.97 125.14 3.24 27
7 08/08/2022 08:40:18 -71.85,-130.29 124.35 08/08/2022 08:41:04 -71.87,-130.30 124.33 2.25 46
8 08/08/2022 09:31:03 71.74, 37.22 55.56 08/08/2022 09:30:31 71.76, 37.17 55.58 2.85 32
9 08/11/2022 00:07:23 71.86, 177.94 56.44 08/11/2022 00:08:02 71.89, 177.98 56.47 3.39 39
10 08/11/2022 00:58:06 -71.79, -14.62 123.62 08/11/2022 00:57:32 -71.79, -14.57 123.63 1.83 34



Historial Predications of SNOs between FY3D and TERRA
